KCMH Airport Diagram

We have created a template for each of the higher traffic airports in the vZID airspace. They include KCMH, KCRW, KCVG, KDAY, KIND, KLEX and KSDF. You wil find usefull information including the airport diagram, weather, and specific airport procedures.

KCMH Weather

[Source: ADDS]
METAR
KCMH 211851Z 07008KT 030V100 10SM SCT080 BKN110 OVC250 17/04 A3012 RMK AO2 SLP199 T01720044 =
KCMH 211740Z 2118/2218 09008KT P6SM BKN250 FM221300 13010KT P6SM BKN200 FM221500 16010KT P6SM SCT250
TAF
KCMH 211740Z 2118/2218 09008KT P6SM BKN250 FM221300 13010KT P6SM BKN200 FM221500 16010KT P6SM SCT250 =

KCMH Operations

Calm wind runway(s) up to 10 kts: Arriving/Departing 28L/R

Typically, Rw 10R/28L for departures to the West and South and Rw 10L/28R for departures to the North and East.

FBOs: Lane Aviation midfield near Tower, Signature South of Twy B.

Advise ATC if you have updated scenery for KCMH as there are significant changes to the runway/taxiways on the South side of the airport. Default scenery does not match the Airport Diagram available through the usual sources.

JSN Epic template designed by JoomlaShine.com